Terminal Aerodrome Forecast
Issued by NWS

Home | Current Version | Previous Version | Text Only | Print | Product List | Glossary Off
Versions: 1 2 3 4 5 6 7 8 9 10 11 12 13

000
FTUS43 KTOP 271700
TAFMHK
TAF
KMHK 271736Z 2718/2818 18010KT P6SM FEW070
     FM281000 15003KT P6SM FEW060=

USA.gov is the U.S. government's official web portal to all federal, state and local government web resources and services.